QPF
0.04 0.04 0.07 0.06 0.04 0.03 0.02 0.02 0.02 0.02 0.02 0.03 0.04 0.04 0.03 0.04 0.05 0.04 0.04 0.05 0.04 0.04 0.04 0.05 0.04 0.04 0.04 0.04 0.05 0.07 0.06 0.06 0.07 0.07 0.08 0.07 0.08 0.07 0.08 0.08 0.05 0.05 0.06
0.02 0.03 0.03 0.02 0.02 0.02 0.02 0.02 0.01 0.01 0.02 0.02 0.03 0.04 0.04 0.05 0.05 0.06 0.06 0.05 0.04 0.04 0.05 0.05 0.04 0.04 0.04 0.04 0.04 0.04 0.04 0.06 0.09 0.09 0.10 0.07 0.07 0.07 0.08 0.06 0.04 0.04 0.06
0.01 0.01 0.02 0.02 0.01 0.01 0.02 0.02 0.01 0.01 0.01 0.02 0.03 0.04 0.04 0.05 0.06 0.08 0.07 0.06 0.07 0.06 0.04 0.04 0.03 0.04 0.04 0.05 0.05 0.04 0.06 0.08 0.09 0.09 0.07 0.04 0.06 0.09 0.09 0.07 0.06 0.05 0.06
0.01 0.01 0.01 0.02 0.01 0.01 0.01 0.02 0.01 0.01 0.01 0.02 0.02 0.04 0.05 0.06 0.10 0.14 0.12 0.13 0.12 0.06 0.04 0.04 0.04 0.03 0.03 0.03 0.03 0.05 0.06 0.09 0.11 0.07 0.03 0.02 0.06 0.09 0.10 0.11 0.11 0.10 0.07
0.01 0.01 0.01 0.01 0.01 0.01 0.02 0.02 0.01 0.01 0.01 0.02 0.02 0.05 0.06 0.06 0.11 0.15 0.19 0.20 0.12 0.06 0.06 0.06 0.05 0.04 0.04 0.03 0.04 0.04 0.05 0.07 0.06 0.04 0.02 0.03 0.07 0.10 0.08 0.09 0.10 0.12 0.10
0.00 0.00 0.01 0.01 0.01 0.01 0.01 0.01 0.01 0.02 0.01 0.01 0.02 0.05 0.09 0.07 0.07 0.11 0.13 0.12 0.08 0.06 0.06 0.07 0.05 0.05 0.05 0.05 0.06 0.03 0.03 0.03 0.03 0.04 0.04 0.05 0.06 0.09 0.08 0.08 0.08 0.09 0.09
0.00 0.00 0.01 0.01 0.01 0.01 0.01 0.01 0.01 0.02 0.01 0.01 0.02 0.04 0.09 0.08 0.06 0.08 0.08 0.07 0.06 0.05 0.05 0.07 0.06 0.05 0.05 0.07 0.06 0.03 0.02 0.02 0.04 0.08 0.06 0.06 0.07 0.07 0.07 0.07 0.07 0.06 0.05
0.00 0.00 0.01 0.01 0.01 0.01 0.01 0.01 0.01 0.02 0.02 0.02 0.03 0.04 0.06 0.08 0.09 0.10 0.08 0.06 0.06 0.06 0.11 0.19 0.14 0.08 0.07 0.06 0.05 0.05 0.03 0.03 0.05 0.06 0.06 0.07 0.07 0.07 0.06 0.06 0.06 0.04 0.03
0.00 0.00 0.00 0.01 0.02 0.01 0.01 0.01 0.01 0.02 0.02 0.02 0.02 0.03 0.03 0.06 0.08 0.10 0.09 0.08 0.07 0.07 0.10 0.15 0.11 0.09 0.09 0.09 0.08 0.07 0.05 0.04 0.02 0.03 0.05 0.05 0.06 0.06 0.06 0.04 0.04 0.04 0.04
0.00 0.00 0.00 0.00 0.01 0.01 0.01 0.01 0.03 0.02 0.02 0.02 0.03 0.02 0.02 0.03 0.05 0.07 0.09 0.09 0.09 0.08 0.08 0.09 0.09 0.08 0.09 0.10 0.09 0.07 0.05 0.03 0.01 0.01 0.02 0.03 0.05 0.06 0.05 0.04 0.04 0.04 0.04
0.01 0.01 0.01 0.00 0.01 0.01 0.00 0.01 0.02 0.02 0.01 0.02 0.02 0.02 0.01 0.01 0.03 0.05 0.06 0.07 0.09 0.09 0.10 0.11 0.11 0.09 0.09 0.09 0.08 0.06 0.04 0.02 0.01 0.01 0.02 0.03 0.05 0.04 0.04 0.03 0.03 0.03 0.03
0.01 0.01 0.01 0.01 0.01 0.00 0.00 0.00 0.01 0.00 0.01 0.01 0.01 0.01 0.01 0.00 0.01 0.03 0.05 0.07 0.09 0.10 0.12 0.16 0.15 0.08 0.06 0.04 0.04 0.04 0.04 0.02 0.01 0.01 0.02 0.04 0.05 0.04 0.03 0.03 0.03 0.03 0.03
0.01 0.01 0.01 0.01 0.01 0.01 0.01 0.01 0.01 0.00 0.00 0.01 0.01 0.02 0.02 0.01 0.01 0.02 0.03 0.04 0.05 0.06 0.06 0.10 0.19 0.14 0.06 0.04 0.04 0.06 0.05 0.03 0.02 0.01 0.03 0.05 0.06 0.05 0.03 0.03 0.03 0.03 0.03
0.01 0.01 0.02 0.02 0.02 0.01 0.01 0.02 0.01 0.01 0.01 0.01 0.01 0.02 0.02 0.02 0.01 0.01 0.01 0.02 0.03 0.03 0.03 0.06 0.17 0.23 0.16 0.11 0.08 0.08 0.06 0.04 0.03 0.03 0.05 0.06 0.07 0.06 0.03 0.03 0.03 0.03 0.03
0.03 0.02 0.02 0.02 0.02 0.02 0.03 0.03 0.02 0.01 0.01 0.01 0.02 0.02 0.02 0.02 0.02 0.02 0.01 0.01 0.02 0.02 0.02 0.04 0.12 0.21 0.21 0.16 0.10 0.09 0.05 0.02 0.02 0.02 0.04 0.06 0.06 0.06 0.05 0.04 0.04 0.04 0.05
0.07 0.03 0.02 0.02 0.02 0.02 0.04 0.03 0.03 0.02 0.02 0.04 0.03 0.03 0.02 0.02 0.02 0.03 0.02 0.02 0.02 0.02 0.02 0.03 0.05 0.09 0.11 0.09 0.07 0.05 0.02 0.02 0.02 0.01 0.01 0.03 0.05 0.04 0.04 0.04 0.06 0.09 0.07
0.05 0.03 0.02 0.01 0.01 0.02 0.03 0.02 0.03 0.03 0.02 0.03 0.04 0.04 0.03 0.04 0.04 0.04 0.03 0.03 0.03 0.03 0.03 0.03 0.03 0.04 0.04 0.04 0.04 0.03 0.02 0.02 0.02 0.01 0.01 0.02 0.03 0.03 0.02 0.03 0.04 0.07 0.06
0.01 0.01 0.02 0.02 0.02 0.02 0.03 0.03 0.02 0.02 0.02 0.02 0.03 0.03 0.03 0.03 0.04 0.03 0.03 0.02 0.03 0.03 0.03 0.03 0.03 0.05 0.04 0.03 0.03 0.03 0.02 0.02 0.02 0.02 0.02 0.02 0.03 0.03 0.02 0.02 0.02 0.04 0.04
0.01 0.01 0.01 0.01 0.01 0.02 0.02 0.03 0.03 0.02 0.02 0.02 0.02 0.02 0.03 0.03 0.03 0.03 0.03 0.03 0.03 0.03 0.03 0.02 0.03 0.03 0.03 0.03 0.03 0.03 0.02 0.02 0.02 0.02 0.01 0.01 0.01 0.02 0.01 0.01 0.01 0.02 0.02
0.01 0.01 0.01 0.01 0.01 0.01 0.02 0.02 0.03 0.03 0.03 0.03 0.03 0.02 0.03 0.04 0.02 0.01 0.02 0.03 0.02 0.02 0.02 0.02 0.02 0.02 0.02 0.03 0.03 0.02 0.02 0.02 0.01 0.02 0.01 0.01 0.02 0.01 0.01 0.00 0.00 0.01 0.02
0.00 0.00 0.00 0.00 0.00 0.00 0.01 0.01 0.01 0.01 0.02 0.02 0.02 0.01 0.01 0.01 0.01 0.01 0.01 0.02 0.01 0.01 0.01 0.01 0.01 0.02 0.02 0.01 0.01 0.01 0.02 0.02 0.01 0.02 0.01 0.01 0.01 0.01 0.01 0.01 0.01 0.01 0.02
0.01 0.01 0.01 0.00 0.00 0.00 0.00 0.00 0.01 0.01 0.01 0.01 0.02 0.02 0.01 0.01 0.01 0.02 0.02 0.02 0.02 0.02 0.02 0.01 0.01 0.01 0.02 0.01 0.01 0.01 0.01 0.01 0.01 0.01 0.01 0.01 0.01 0.01 0.01 0.01 0.01 0.02 0.03
0.01 0.01 0.01 0.01 0.00 0.00 0.00 0.00 0.01 0.01 0.01 0.01 0.01 0.02 0.01 0.01 0.01 0.01 0.01 0.01 0.01 0.01 0.01 0.01 0.01 0.01 0.01 0.01 0.01 0.01 0.01 0.01 0.01 0.01 0.01 0.01 0.02 0.02 0.01 0.01 0.01 0.02 0.03
0.01 0.01 0.01 0.01 0.01 0.00 0.00 0.00 0.01 0.01 0.01 0.01 0.01 0.01 0.01 0.01 0.01 0.01 0.01 0.01 0.02 0.01 0.01 0.01 0.01 0.01 0.00 0.01 0.01 0.01 0.02 0.01 0.01 0.01 0.01 0.02 0.02 0.03 0.03 0.03 0.02 0.02 0.02
0.02 0.02 0.02 0.02 0.01 0.00 0.00 0.00 0.00 0.01 0.01 0.02 0.01 0.01 0.01 0.01 0.01 0.01 0.01 0.01 0.01 0.01 0.01 0.01 0.01 0.01 0.01 0.01 0.01 0.01 0.01 0.01 0.01 0.01 0.01 0.01 0.01 0.02 0.02 0.02 0.01 0.01 0.02
0.02 0.03 0.03 0.02 0.02 0.01 0.01 0.00 0.00 0.00 0.01 0.01 0.01 0.01 0.01 0.01 0.01 0.01 0.01 0.01 0.01 0.01 0.01 0.01 0.01 0.01 0.01 0.01 0.02 0.01 0.01 0.02 0.02 0.02 0.02 0.02 0.02 0.01 0.02 0.02 0.01 0.01 0.02
MSLP
1013.29 1012.55 1011.94 1011.53 1011.31 1011.22 1011.21 1011.17 1011.06 1010.83 1010.51 1010.15 1009.80 1009.52 1009.35 1009.27 1009.26 1009.26 1009.24 1009.16 1009.03 1008.87 1008.72 1008.63 1008.63 1008.74 1008.93 1009.18 1009.44 1009.69 1009.91 1010.10 1010.28 1010.47 1010.68 1010.91 1011.16 1011.40 1011.62 1011.81 1011.96 1012.09 1012.22
1013.26 1012.57 1012.01 1011.62 1011.40 1011.30 1011.25 1011.18 1011.03 1010.79 1010.48 1010.14 1009.84 1009.63 1009.51 1009.50 1009.53 1009.56 1009.55 1009.48 1009.34 1009.17 1009.02 1008.93 1008.93 1009.04 1009.23 1009.47 1009.73 1009.98 1010.21 1010.41 1010.62 1010.84 1011.08 1011.35 1011.62 1011.87 1012.09 1012.27 1012.40 1012.51 1012.63
1013.16 1012.53 1012.01 1011.65 1011.43 1011.33 1011.26 1011.16 1010.99 1010.74 1010.44 1010.13 1009.88 1009.72 1009.67 1009.69 1009.75 1009.79 1009.78 1009.70 1009.55 1009.39 1009.24 1009.16 1009.18 1009.30 1009.50 1009.76 1010.02 1010.28 1010.53 1010.76 1011.00 1011.26 1011.55 1011.85 1012.14 1012.40 1012.62 1012.78 1012.89 1012.99 1013.10
1013.02 1012.45 1011.98 1011.66 1011.47 1011.36 1011.28 1011.16 1010.98 1010.73 1010.45 1010.17 1009.96 1009.84 1009.82 1009.86 1009.92 1009.96 1009.94 1009.84 1009.70 1009.54 1009.42 1009.37 1009.43 1009.58 1009.81 1010.08 1010.37 1010.65 1010.92 1011.18 1011.46 1011.76 1012.08 1012.41 1012.72 1012.99 1013.19 1013.33 1013.43 1013.50 1013.59
1012.87 1012.38 1011.99 1011.72 1011.56 1011.47 1011.39 1011.26 1011.07 1010.82 1010.55 1010.30 1010.11 1010.01 1010.00 1010.04 1010.09 1010.11 1010.07 1009.97 1009.84 1009.71 1009.63 1009.63 1009.74 1009.94 1010.22 1010.53 1010.84 1011.14 1011.42 1011.71 1012.01 1012.33 1012.67 1013.02 1013.34 1013.60 1013.80 1013.92 1013.99 1014.05 1014.13
1012.80 1012.39 1012.08 1011.89 1011.78 1011.71 1011.63 1011.50 1011.30 1011.05 1010.78 1010.55 1010.37 1010.28 1010.27 1010.30 1010.33 1010.33 1010.27 1010.17 1010.06 1009.97 1009.95 1010.02 1010.20 1010.46 1010.79 1011.13 1011.46 1011.77 1012.06 1012.35 1012.65 1012.97 1013.32 1013.67 1013.98 1014.23 1014.41 1014.52 1014.57 1014.61 1014.67
1012.84 1012.54 1012.32 1012.20 1012.15 1012.11 1012.03 1011.89 1011.68 1011.43 1011.16 1010.93 1010.77 1010.69 1010.67 1010.68 1010.69 1010.67 1010.61 1010.52 1010.43 1010.39 1010.44 1010.59 1010.84 1011.17 1011.54 1011.91 1012.25 1012.55 1012.82 1013.09 1013.36 1013.67 1013.99 1014.32 1014.61 1014.85 1015.01 1015.10 1015.14 1015.17 1015.23
1013.03 1012.83 1012.72 1012.68 1012.67 1012.65 1012.58 1012.43 1012.21 1011.95 1011.69 1011.47 1011.32 1011.24 1011.23 1011.23 1011.23 1011.20 1011.14 1011.07 1011.02 1011.03 1011.14 1011.36 1011.68 1012.07 1012.47 1012.85 1013.18 1013.46 1013.69 1013.90 1014.13 1014.38 1014.66 1014.95 1015.22 1015.43 1015.58 1015.67 1015.70 1015.73 1015.78
1013.34 1013.26 1013.24 1013.28 1013.32 1013.31 1013.23 1013.07 1012.84 1012.57 1012.32 1012.13 1012.00 1011.95 1011.95 1011.97 1011.97 1011.94 1011.89 1011.83 1011.81 1011.87 1012.03 1012.31 1012.67 1013.09 1013.51 1013.89 1014.19 1014.42 1014.60 1014.75 1014.91 1015.09 1015.31 1015.55 1015.78 1015.98 1016.12 1016.20 1016.24 1016.27 1016.33
1013.74 1013.77 1013.85 1013.95 1014.02 1014.02 1013.93 1013.75 1013.51 1013.26 1013.03 1012.87 1012.79 1012.78 1012.81 1012.85 1012.87 1012.85 1012.80 1012.76 1012.76 1012.84 1013.03 1013.34 1013.73 1014.16 1014.58 1014.94 1015.21 1015.39 1015.51 1015.59 1015.67 1015.78 1015.94 1016.12 1016.31 1016.49 1016.62 1016.71 1016.77 1016.81 1016.88
1014.16 1014.30 1014.47 1014.62 1014.71 1014.71 1014.61 1014.42 1014.18 1013.95 1013.76 1013.65 1013.63 1013.67 1013.75 1013.83 1013.87 1013.86 1013.82 1013.78 1013.79 1013.88 1014.08 1014.39 1014.78 1015.21 1015.61 1015.95 1016.19 1016.32 1016.38 1016.40 1016.41 1016.45 1016.55 1016.68 1016.84 1016.99 1017.13 1017.23 1017.31 1017.37 1017.46
1014.56 1014.79 1015.03 1015.23 1015.34 1015.33 1015.22 1015.03 1014.81 1014.60 1014.46 1014.41 1014.45 1014.56 1014.69 1014.81 1014.88 1014.89 1014.85 1014.81 1014.81 1014.90 1015.09 1015.39 1015.76 1016.17 1016.56 1016.87 1017.08 1017.19 1017.21 1017.18 1017.14 1017.13 1017.17 1017.26 1017.39 1017.53 1017.67 1017.79 1017.89 1017.98 1018.07
1014.88 1015.20 1015.50 1015.73 1015.85 1015.85 1015.74 1015.55 1015.35 1015.19 1015.10 1015.11 1015.22 1015.39 1015.57 1015.72 1015.82 1015.85 1015.82 1015.78 1015.78 1015.85 1016.02 1016.29 1016.65 1017.03 1017.40 1017.70 1017.91 1018.00 1018.01 1017.96 1017.90 1017.86 1017.86 1017.91 1018.02 1018.14 1018.28 1018.41 1018.53 1018.64 1018.75
1015.11 1015.49 1015.84 1016.10 1016.23 1016.24 1016.14 1015.98 1015.82 1015.70 1015.67 1015.74 1015.89 1016.11 1016.33 1016.51 1016.64 1016.69 1016.67 1016.65 1016.64 1016.70 1016.86 1017.12 1017.45 1017.82 1018.18 1018.47 1018.68 1018.79 1018.81 1018.77 1018.71 1018.65 1018.63 1018.66 1018.74 1018.85 1018.98 1019.12 1019.24 1019.36 1019.48
1015.25 1015.68 1016.06 1016.34 1016.49 1016.51 1016.45 1016.33 1016.21 1016.14 1016.15 1016.27 1016.46 1016.70 1016.94 1017.15 1017.30 1017.37 1017.39 1017.38 1017.40 1017.47 1017.63 1017.87 1018.19 1018.55 1018.91 1019.22 1019.45 1019.59 1019.64 1019.63 1019.58 1019.53 1019.50 1019.51 1019.56 1019.65 1019.77 1019.90 1020.02 1020.14 1020.26
1015.33 1015.78 1016.17 1016.46 1016.63 1016.69 1016.67 1016.61 1016.54 1016.53 1016.58 1016.72 1016.93 1017.17 1017.42 1017.64 1017.80 1017.91 1017.97 1018.01 1018.07 1018.17 1018.35 1018.60 1018.92 1019.28 1019.64 1019.96 1020.22 1020.40 1020.50 1020.53 1020.51 1020.47 1020.44 1020.43 1020.46 1020.52 1020.61 1020.72 1020.83 1020.94 1021.04
1015.36 1015.81 1016.20 1016.50 1016.70 1016.81 1016.85 1016.85 1016.86 1016.89 1016.98 1017.13 1017.33 1017.56 1017.79 1018.01 1018.19 1018.33 1018.45 1018.55 1018.67 1018.82 1019.03 1019.31 1019.63 1019.99 1020.36 1020.70 1020.99 1021.21 1021.36 1021.43 1021.45 1021.43 1021.41 1021.38 1021.38 1021.41 1021.46 1021.54 1021.62 1021.71 1021.79
1015.37 1015.79 1016.17 1016.48 1016.72 1016.88 1017.00 1017.09 1017.16 1017.26 1017.37 1017.52 1017.70 1017.89 1018.10 1018.30 1018.50 1018.68 1018.85 1019.03 1019.22 1019.44 1019.69 1019.99 1020.32 1020.69 1021.05 1021.40 1021.72 1021.98 1022.17 1022.29 1022.35 1022.35 1022.33 1022.30 1022.27 1022.26 1022.27 1022.31 1022.36 1022.42 1022.48
1015.35 1015.75 1016.11 1016.43 1016.70 1016.94 1017.15 1017.32 1017.48 1017.63 1017.78 1017.92 1018.07 1018.23 1018.39 1018.58 1018.77 1018.99 1019.22 1019.46 1019.72 1020.00 1020.30 1020.62 1020.95 1021.31 1021.67 1022.02 1022.34 1022.63 1022.86 1023.02 1023.12 1023.16 1023.15 1023.11 1023.05 1023.01 1022.98 1022.98 1023.00 1023.04 1023.07
1015.32 1015.68 1016.02 1016.35 1016.67 1016.98 1017.28 1017.56 1017.81 1018.03 1018.21 1018.35 1018.47 1018.58 1018.71 1018.86 1019.05 1019.28 1019.55 1019.85 1020.17 1020.49 1020.82 1021.14 1021.47 1021.81 1022.15 1022.48 1022.81 1023.12 1023.38 1023.59 1023.73 1023.80 1023.81 1023.77 1023.71 1023.64 1023.59 1023.55 1023.55 1023.56 1023.58
1015.26 1015.59 1015.92 1016.27 1016.63 1017.02 1017.41 1017.79 1018.14 1018.42 1018.64 1018.79 1018.89 1018.96 1019.05 1019.17 1019.34 1019.58 1019.87 1020.20 1020.54 1020.89 1021.22 1021.53 1021.84 1022.14 1022.45 1022.77 1023.10 1023.42 1023.71 1023.96 1024.14 1024.25 1024.29 1024.28 1024.22 1024.15 1024.08 1024.03 1024.01 1024.02 1024.03
1015.16 1015.48 1015.80 1016.16 1016.57 1017.03 1017.51 1017.99 1018.43 1018.78 1019.05 1019.22 1019.31 1019.36 1019.41 1019.50 1019.65 1019.87 1020.16 1020.49 1020.83 1021.17 1021.48 1021.77 1022.03 1022.30 1022.57 1022.87 1023.19 1023.52 1023.85 1024.14 1024.37 1024.53 1024.61 1024.63 1024.60 1024.54 1024.48 1024.44 1024.42 1024.43 1024.45
1015.01 1015.34 1015.67 1016.04 1016.49 1017.00 1017.56 1018.12 1018.64 1019.08 1019.39 1019.59 1019.70 1019.75 1019.78 1019.84 1019.96 1020.16 1020.42 1020.72 1021.04 1021.34 1021.62 1021.86 1022.08 1022.30 1022.55 1022.82 1023.14 1023.48 1023.83 1024.17 1024.45 1024.67 1024.80 1024.86 1024.87 1024.85 1024.82 1024.81 1024.81 1024.84 1024.88
1014.82 1015.16 1015.51 1015.90 1016.38 1016.93 1017.55 1018.17 1018.76 1019.26 1019.64 1019.88 1020.01 1020.07 1020.10 1020.15 1020.25 1020.41 1020.64 1020.91 1021.18 1021.44 1021.67 1021.86 1022.04 1022.22 1022.43 1022.69 1023.00 1023.36 1023.74 1024.11 1024.44 1024.70 1024.89 1025.01 1025.07 1025.10 1025.12 1025.16 1025.20 1025.27 1025.34
1014.56 1014.94 1015.31 1015.73 1016.22 1016.80 1017.45 1018.12 1018.76 1019.32 1019.75 1020.04 1020.21 1020.30 1020.35 1020.40 1020.49 1020.63 1020.82 1021.05 1021.28 1021.49 1021.67 1021.83 1021.97 1022.12 1022.31 1022.56 1022.87 1023.23 1023.62 1024.02 1024.38 1024.69 1024.93 1025.10 1025.23 1025.32 1025.41 1025.50 1025.60 1025.72 1025.82
1014.25 1014.68 1015.08 1015.51 1016.02 1016.61 1017.28 1017.97 1018.64 1019.23 1019.71 1020.05 1020.28 1020.41 1020.49 1020.56 1020.66 1020.79 1020.97 1021.17 1021.37 1021.55 1021.70 1021.83 1021.94 1022.08 1022.26 1022.49 1022.79 1023.15 1023.54 1023.95 1024.32 1024.66 1024.94 1025.16 1025.35 1025.51 1025.67 1025.83 1026.00 1026.17 1026.31
Thickness
5756 5760 5762 5763 5764 5765 5766 5767 5768 5770 5770 5771 5772 5773 5773 5774 5774 5775 5775 5776 5777 5778 5778 5779 5779 5779 5779 5779 5778 5778 5777 5777 5776 5776 5775 5775 5775 5774 5774 5774 5774 5774 5773
5758 5759 5760 5761 5762 5763 5764 5765 5766 5767 5768 5769 5769 5770 5770 5771 5771 5772 5772 5773 5773 5774 5774 5775 5776 5776 5776 5776 5776 5776 5775 5774 5774 5773 5772 5772 5772 5772 5772 5772 5772 5771 5771
5758 5758 5759 5760 5760 5761 5762 5763 5764 5765 5765 5766 5766 5767 5767 5767 5768 5769 5769 5769 5769 5770 5770 5771 5772 5772 5772 5773 5773 5773 5772 5772 5771 5770 5770 5769 5769 5769 5769 5769 5769 5769 5769
5757 5757 5757 5758 5759 5759 5760 5761 5761 5762 5762 5763 5763 5763 5764 5764 5765 5767 5767 5766 5766 5766 5766 5767 5767 5768 5768 5769 5769 5769 5769 5768 5768 5768 5768 5767 5767 5767 5767 5767 5767 5766 5766
5755 5755 5755 5756 5757 5757 5758 5758 5759 5759 5759 5760 5760 5760 5760 5761 5761 5763 5763 5762 5762 5762 5762 5763 5763 5763 5764 5765 5765 5765 5765 5765 5766 5766 5765 5764 5764 5764 5764 5763 5763 5763 5763
5753 5753 5753 5754 5754 5755 5755 5756 5756 5756 5757 5757 5757 5757 5757 5757 5757 5758 5758 5757 5757 5757 5758 5758 5759 5759 5760 5760 5760 5760 5761 5761 5761 5762 5761 5760 5760 5760 5760 5760 5760 5760 5759
5750 5751 5751 5751 5751 5752 5752 5752 5753 5753 5753 5753 5753 5753 5753 5753 5753 5753 5753 5753 5753 5753 5753 5754 5754 5755 5755 5755 5755 5755 5755 5755 5755 5755 5755 5755 5755 5755 5756 5756 5756 5755 5755
5749 5749 5748 5749 5749 5749 5749 5749 5749 5749 5749 5749 5749 5749 5749 5749 5749 5749 5749 5749 5749 5749 5749 5749 5749 5750 5750 5750 5750 5750 5750 5750 5750 5749 5749 5750 5750 5751 5751 5751 5751 5751 5751
5747 5746 5746 5745 5745 5746 5746 5746 5745 5745 5746 5745 5745 5745 5745 5744 5744 5744 5744 5744 5744 5744 5743 5744 5744 5745 5745 5745 5745 5745 5745 5745 5745 5745 5745 5745 5745 5746 5746 5746 5746 5746 5747
5744 5743 5743 5742 5742 5742 5742 5742 5742 5742 5741 5741 5741 5741 5740 5740 5740 5739 5739 5739 5739 5739 5738 5739 5739 5739 5739 5739 5739 5739 5739 5739 5740 5740 5740 5740 5741 5741 5742 5742 5742 5742 5742
5739 5740 5740 5740 5739 5739 5739 5739 5738 5738 5737 5737 5737 5736 5736 5735 5735 5734 5734 5734 5734 5734 5734 5734 5734 5734 5734 5734 5734 5734 5734 5734 5735 5735 5735 5736 5737 5737 5737 5737 5737 5737 5737
5735 5737 5738 5737 5736 5736 5736 5735 5735 5734 5734 5733 5733 5732 5732 5731 5730 5730 5730 5730 5729 5729 5729 5730 5730 5729 5728 5728 5728 5728 5729 5729 5730 5730 5731 5731 5732 5732 5732 5732 5732 5733 5733
5735 5735 5736 5735 5734 5733 5733 5732 5732 5731 5730 5730 5729 5729 5728 5727 5726 5726 5725 5725 5724 5724 5724 5724 5724 5724 5722 5722 5723 5723 5723 5724 5724 5725 5725 5727 5727 5727 5727 5728 5728 5728 5728
5732 5733 5734 5733 5732 5731 5730 5729 5728 5727 5727 5726 5726 5725 5724 5722 5721 5721 5720 5719 5719 5719 5718 5718 5719 5719 5717 5716 5717 5717 5718 5718 5718 5719 5720 5721 5722 5722 5723 5723 5723 5723 5723
5731 5731 5731 5732 5730 5728 5727 5726 5726 5725 5724 5723 5722 5721 5720 5719 5717 5716 5715 5715 5714 5714 5713 5712 5712 5712 5711 5711 5712 5712 5712 5713 5713 5713 5715 5716 5716 5717 5717 5717 5717 5717 5718
5729 5729 5730 5730 5729 5727 5724 5723 5723 5722 5721 5719 5718 5718 5717 5716 5714 5713 5711 5710 5710 5709 5708 5708 5707 5707 5706 5706 5706 5707 5707 5707 5707 5708 5709 5709 5710 5711 5711 5712 5712 5712 5712
5728 5728 5728 5727 5727 5725 5723 5721 5720 5719 5718 5716 5715 5714 5714 5713 5711 5710 5707 5706 5705 5705 5704 5703 5703 5703 5702 5702 5701 5701 5701 5701 5701 5702 5702 5703 5704 5705 5705 5706 5707 5707 5707
5727 5726 5726 5726 5724 5722 5721 5719 5717 5716 5715 5714 5712 5711 5711 5709 5708 5707 5704 5702 5702 5701 5700 5699 5697 5696 5695 5695 5695 5695 5695 5696 5696 5697 5697 5697 5698 5698 5699 5700 5701 5701 5702
5725 5724 5722 5722 5720 5719 5718 5716 5714 5713 5711 5710 5709 5708 5707 5706 5705 5703 5701 5699 5699 5697 5695 5695 5692 5691 5689 5689 5690 5690 5690 5690 5691 5692 5692 5692 5692 5693 5693 5694 5695 5695 5696
5723 5722 5720 5719 5717 5715 5714 5712 5710 5708 5707 5706 5705 5704 5703 5702 5701 5700 5697 5696 5695 5693 5691 5690 5688 5687 5686 5685 5686 5684 5684 5686 5687 5687 5688 5688 5688 5688 5689 5689 5689 5690 5691
5719 5717 5716 5714 5713 5712 5709 5707 5704 5702 5702 5701 5701 5700 5699 5699 5697 5696 5694 5692 5691 5689 5687 5686 5685 5683 5681 5681 5679 5677 5678 5681 5682 5683 5683 5684 5684 5684 5684 5684 5685 5685 5686
5714 5713 5712 5711 5709 5708 5707 5704 5702 5700 5698 5697 5697 5696 5696 5695 5694 5693 5690 5689 5687 5686 5684 5683 5681 5678 5677 5678 5675 5671 5668 5670 5675 5678 5679 5679 5680 5680 5680 5680 5681 5681 5682
5710 5709 5709 5707 5706 5705 5704 5701 5699 5696 5694 5692 5691 5691 5691 5691 5690 5689 5687 5686 5684 5683 5681 5680 5679 5677 5674 5674 5675 5671 5665 5662 5666 5670 5673 5674 5675 5675 5676 5676 5677 5677 5678
5708 5708 5706 5704 5702 5701 5699 5697 5693 5689 5686 5686 5686 5686 5687 5687 5687 5686 5684 5683 5681 5680 5679 5678 5677 5676 5673 5670 5671 5672 5671 5668 5663 5662 5666 5669 5670 5671 5672 5673 5673 5673 5674
5706 5705 5703 5701 5699 5697 5695 5693 5690 5686 5684 5683 5683 5682 5682 5682 5683 5682 5681 5679 5678 5677 5676 5676 5675 5673 5672 5669 5668 5668 5667 5666 5665 5661 5659 5662 5664 5666 5667 5668 5669 5669 5670
5703 5701 5699 5697 5695 5694 5692 5689 5687 5683 5681 5679 5677 5677 5676 5676 5677 5677 5677 5676 5675 5674 5673 5673 5672 5671 5669 5668 5667 5666 5665 5663 5661 5660 5657 5656 5657 5660 5662 5664 5665 5665 5666